Simultaneous Nadir Overpasses (SNOs) Predictions

Prediction of SNOs between GOES-16 and NOAA-20 Satellite Orbit:

Table of predicted SNOs for the next 14.0 days since TLE Epoch: 1/4/2019
Index Date Time (GOES-16) GOES-16 Lat,Lon NOAA-20 Lat,Lon Distance(km) Time Diff (sec)
1 01/05/2019 06:17:00 0.01, -75.19 -0.38, -73.43 201.27 80
2 01/06/2019 18:41:37 -0.01, -75.20 -0.82, -78.73 402.59 80
3 01/07/2019 18:20:13 -0.01, -75.21 0.22, -74.21 113.94 80
4 01/09/2019 06:44:42 0.01, -75.21 0.99, -79.47 486.28 80
5 01/10/2019 06:23:18 0.00, -75.22 -0.05, -74.94 30.62 80
6 01/12/2019 18:29:12 0.00, -75.25 -0.11, -75.72 54.72 80
7 01/13/2019 18:07:49 0.01, -75.26 0.92, -71.20 462.72 80
8 01/15/2019 06:32:17 -0.00, -75.27 0.29, -76.46 136.18 80
9 01/16/2019 06:10:53 -0.00, -75.29 -0.75, -71.94 381.41 80
10 01/17/2019 18:35:31 -0.01, -75.31 -0.44, -77.24 220.31 80
11 01/18/2019 18:14:07 -0.00, -75.32 0.60, -72.72 297.41 80




NCC Satellite Simultaneous Nadir Overpasses (SNOs) Prediction Service
